Powrót do katalogu

STARLINK-36700

AktywnyŁącznośćSSO
NORAD 67662·PAYLOAD·🇺🇸 United States

Wystrzelony Feb 2, 2026 z Vandenberg Space Force Base

Loading…

Następne Przeloty (najbliższe 24 godziny)

TLE

ŚwieżeSource: CelesTrak SupGP

Epoka: Sep 14, 2026, 21:27 UTC

1 67662C 26022Q   26257.89423611  .00011736  00000+0  36436-3 0  2574
2 67662  97.2846 289.6104 0001263  88.2863 239.0340 15.33428485    17

Śledź STARLINK-36700 w czasie rzeczywistym z AllMySat

Download on the App Store